Melfa, VA

8:01 AM EDT on August 22, 2017 (GMT -0400)
Accomack County

Weather History for KMFV - June, 2013

Change the Weather History Date:

Tuesday, June 18, 2013

  Actual Average (KWAL) Record (KWAL)
Temperature  
Mean Temperature 72 °F -  
Max Temperature 78 °F 78 °F 96 °F (2014)
Min Temperature 66 °F 63 °F 51 °F (2012)
Cooling Degree Days 7    
Growing Degree Days 22 (Base 50)    
Moisture  
Dew Point 69 °F    
Average Humidity 86    
Maximum Humidity 94    
Minimum Humidity 78    
Precipitation  
Precipitation 0.14 in - - ()
Sea Level Pressure  
Sea Level Pressure 29.86 in    
Wind  
Wind Speed 6 mph (SSW)    
Max Wind Speed 15 mph    
Max Gust Speed 30 mph    
Visibility 9 miles    
Events Rain , Thunderstorm    
Averages and records for this station are not official NWS values.
T = Trace of Precipitation, MM = Missing Value Source: NWS Daily Summary

Daily Weather History Graph

Daily Weather History Graph

Search for Another Location

Airport or City:

Trip Planner

Search our weather history database for the weather conditions in past years. The results will help you decide how hot, cold, wet, or windy it might be!

Date:

Astronomy

Jun. 18, 2013 Rise Set
Actual Time 5:41 AM EDT 8:27 PM EDT
Civil Twilight 5:10 AM EDT 8:58 PM EDT
Nautical Twilight 4:30 AM EDT 9:37 PM EDT
Astronomical Twilight 3:46 AM EDT 10:22 PM EDT
Moon 3:13 PM EDT (6/18) 1:43 AM EDT (6/18)
Length of Visible Light 15h 48m
Length of Day
14h 46m
Waxing Gibbous, 70% of the Moon is Illuminated
Jun 18
Waxing Gibbous
Jun 23
Full
Jun 30
Last Quarter
Jul 8
New
Jul 15
First Quarter

Hourly Weather History & Observations

Time (EDT) Temp. Dew Point Humidity Pressure Visibility Wind Dir Wind Speed Gust Speed Precip Events Conditions
12:16 AM 73.4 °F 68.0 °F 83% 29.97 in 10.0 mi SW 4.6 mph - N/A   Clear
12:36 AM 73.4 °F 69.8 °F 88% 29.96 in 10.0 mi SSW 5.8 mph - N/A   Clear
12:56 AM 75.2 °F 69.8 °F 83% 29.95 in 10.0 mi SW 6.9 mph - N/A   Clear
1:16 AM 75.2 °F 69.8 °F 83% 29.95 in 10.0 mi SW 6.9 mph - N/A   Scattered Clouds
1:36 AM 75.2 °F 69.8 °F 83% 29.94 in 10.0 mi SW 8.1 mph - N/A   Scattered Clouds
1:56 AM 75.2 °F 69.8 °F 83% 29.93 in 10.0 mi SW 6.9 mph - N/A   Clear
2:16 AM 75.2 °F 69.8 °F 83% 29.93 in 10.0 mi SW 5.8 mph - N/A   Clear
2:36 AM 75.2 °F 69.8 °F 83% 29.92 in 10.0 mi SW 4.6 mph - N/A   Clear
2:56 AM 75.2 °F 69.8 °F 83% 29.91 in 10.0 mi SW 4.6 mph - N/A   Clear
3:16 AM 73.4 °F 69.8 °F 88% 29.91 in 10.0 mi SW 3.5 mph - N/A   Clear
3:36 AM 73.4 °F 69.8 °F 88% 29.91 in 10.0 mi SSW 3.5 mph - N/A   Clear
4:16 AM 73.4 °F 69.8 °F 88% 29.90 in 10.0 mi SSW 4.6 mph - N/A   Clear
4:36 AM 73.4 °F 69.8 °F 88% 29.89 in 10.0 mi SSW 4.6 mph - N/A   Clear
4:56 AM 73.4 °F 69.8 °F 88% 29.89 in 10.0 mi Calm Calm - N/A   Clear
5:17 AM 73.4 °F 69.8 °F 88% 29.89 in 7.0 mi Calm Calm - N/A   Clear
5:37 AM 71.6 °F 69.8 °F 94% 29.90 in 5.0 mi South 3.5 mph - N/A   Clear
5:56 AM 71.6 °F 69.8 °F 94% 29.90 in 4.0 mi Calm Calm - N/A   Clear
6:16 AM 73.4 °F 69.8 °F 88% 29.91 in 5.0 mi South 4.6 mph - N/A   Mostly Cloudy
6:36 AM 73.4 °F 71.6 °F 94% 29.91 in 5.0 mi South 4.6 mph - N/A   Overcast
6:56 AM 73.4 °F 71.6 °F 94% 29.91 in 7.0 mi SSW 5.8 mph - N/A   Scattered Clouds
7:16 AM 73.4 °F 71.6 °F 94% 29.91 in 7.0 mi SW 4.6 mph - N/A   Scattered Clouds
7:36 AM 75.2 °F 71.6 °F 89% 29.91 in 10.0 mi SW 4.6 mph - N/A   Mostly Cloudy
7:56 AM 75.2 °F 71.6 °F 89% 29.91 in 10.0 mi SSW 5.8 mph - N/A   Mostly Cloudy
8:16 AM 75.2 °F 71.6 °F 89% 29.91 in 10.0 mi SW 5.8 mph - N/A   Scattered Clouds
8:36 AM 75.2 °F 71.6 °F 89% 29.92 in 10.0 mi SW 6.9 mph - N/A   Clear
8:56 AM 75.2 °F 71.6 °F 89% 29.92 in 10.0 mi SW 6.9 mph - N/A   Scattered Clouds
9:17 AM 75.2 °F 71.6 °F 89% 29.91 in 10.0 mi SW 8.1 mph - N/A Rain Light Rain
9:36 AM 75.2 °F 71.6 °F 89% 29.91 in 10.0 mi SW 6.9 mph - N/A   Light Drizzle
9:56 AM 75.2 °F 71.6 °F 89% 29.91 in 10.0 mi SSW 5.8 mph - N/A Rain Light Rain
10:16 AM 75.2 °F 71.6 °F 89% 29.91 in 10.0 mi SSW 6.9 mph - N/A   Scattered Clouds
10:36 AM 75.2 °F 71.6 °F 89% 29.90 in 7.0 mi SSW 6.9 mph - N/A Rain Light Rain
11:16 AM 75.2 °F 71.6 °F 89% 29.89 in 10.0 mi SSW 6.9 mph - N/A   Scattered Clouds
11:37 AM 75.2 °F 71.6 °F 89% 29.89 in 7.0 mi SSW 3.5 mph - N/A Rain Light Rain
11:56 AM 75.2 °F 71.6 °F 89% 29.89 in 10.0 mi South 4.6 mph - N/A   Light Drizzle
12:16 PM 77.0 °F 71.6 °F 83% 29.88 in 10.0 mi SSW 5.8 mph - N/A   Clear
12:36 PM 78.8 °F 71.6 °F 78% 29.87 in 7.0 mi SSW 6.9 mph - 0.01 in   Scattered Clouds
12:56 PM 78.8 °F 71.6 °F 78% 29.86 in 10.0 mi SSW 8.1 mph - N/A Rain Light Rain
1:16 PM 78.8 °F 71.6 °F 78% 29.86 in 7.0 mi SSW 5.8 mph - N/A   Scattered Clouds
1:38 PM 78.8 °F 71.6 °F 78% 29.86 in 10.0 mi SSW 8.1 mph - N/A Rain Light Rain
1:56 PM 78.8 °F 71.6 °F 78% 29.85 in 10.0 mi SSW 9.2 mph - N/A   Scattered Clouds
2:16 PM 78.8 °F 71.6 °F 78% 29.84 in 7.0 mi SSW 6.9 mph - N/A Rain Light Rain
2:36 PM 77.0 °F 71.6 °F 83% 29.84 in 7.0 mi South 4.6 mph - N/A Rain Light Rain
2:56 PM 77.0 °F 73.4 °F 89% 29.83 in 7.0 mi South 5.8 mph - N/A   Scattered Clouds
3:18 PM 77.0 °F 71.6 °F 83% 29.82 in 10.0 mi SSE 5.8 mph - N/A   Scattered Clouds
3:36 PM 77.0 °F 71.6 °F 83% 29.81 in 10.0 mi SSE 10.4 mph - N/A   Scattered Clouds
3:56 PM 77.0 °F 71.6 °F 83% 29.81 in 10.0 mi South 10.4 mph 16.1 mph N/A   Clear
4:16 PM 77.0 °F 71.6 °F 83% 29.80 in 10.0 mi South 8.1 mph - N/A   Clear
4:36 PM 78.8 °F 71.6 °F 78% 29.79 in 10.0 mi SSW 5.8 mph - N/A Thunderstorm Clear
4:56 PM 78.8 °F 71.6 °F 78% 29.78 in 10.0 mi South 5.8 mph - N/A   Clear
5:16 PM 78.8 °F 71.6 °F 78% 29.78 in 10.0 mi SSW 6.9 mph - N/A   Scattered Clouds
5:36 PM 78.8 °F 71.6 °F 78% 29.78 in 10.0 mi South 5.8 mph - N/A   Scattered Clouds
5:56 PM 78.8 °F 71.6 °F 78% 29.78 in 10.0 mi South 5.8 mph - N/A   Mostly Cloudy
6:16 PM 78.8 °F 71.6 °F 78% 29.77 in 10.0 mi South 3.5 mph - N/A   Scattered Clouds
6:36 PM 77.0 °F 71.6 °F 83% 29.79 in 2.5 mi South 11.5 mph - 0.04 in Rain Heavy Rain
6:57 PM 73.4 °F 68.0 °F 83% 29.78 in 10.0 mi SW 6.9 mph - 0.01 in Rain Light Rain
7:16 PM 69.8 °F 64.4 °F 83% 29.80 in 10.0 mi North 13.8 mph 29.9 mph 0.06 in Rain Light Rain
7:37 PM 68.0 °F 64.4 °F 88% 29.79 in 10.0 mi NE 15.0 mph 23.0 mph 0.09 in Rain Rain
7:56 PM 66.2 °F 64.4 °F 94% 29.80 in 10.0 mi NE 9.2 mph 16.1 mph N/A Rain Light Rain
8:16 PM 66.2 °F 64.4 °F 94% 29.81 in 10.0 mi ENE 9.2 mph - N/A   Overcast
8:36 PM 66.2 °F 62.6 °F 88% 29.81 in 10.0 mi ENE 8.1 mph - N/A   Overcast
8:57 PM 66.2 °F 64.4 °F 94% 29.82 in 10.0 mi East 9.2 mph - N/A   Overcast
9:16 PM 66.2 °F 62.6 °F 88% 29.81 in 10.0 mi ENE 12.7 mph 19.6 mph N/A   Overcast
9:36 PM 66.2 °F 62.6 °F 88% 29.82 in 10.0 mi East 9.2 mph 16.1 mph N/A   Mostly Cloudy
9:56 PM 66.2 °F 62.6 °F 88% 29.83 in 7.0 mi ENE 9.2 mph - N/A   Mostly Cloudy
10:16 PM 66.2 °F 62.6 °F 88% 29.81 in 7.0 mi East 9.2 mph - N/A   Scattered Clouds
10:36 PM 66.2 °F 62.6 °F 88% 29.81 in 7.0 mi ENE 6.9 mph - N/A   Clear
10:56 PM 66.2 °F 62.6 °F 88% 29.82 in 7.0 mi ENE 3.5 mph - N/A   Clear
11:16 PM 66.2 °F 62.6 °F 88% 29.84 in 7.0 mi NNW 3.5 mph - N/A   Clear
11:36 PM 66.2 °F 62.6 °F 88% 29.84 in 7.0 mi NNW 5.8 mph - N/A   Clear
11:56 PM 66.2 °F 62.6 °F 88% 29.85 in 7.0 mi NNW 3.5 mph - N/A   Clear